TimeCDT,TemperatureF,Dew PointF,Humidity,Sea Level PressureIn,VisibilityMPH,Wind Direction,Wind SpeedMPH,Gust SpeedMPH,PrecipitationIn,Events,Conditions,WindDirDegrees,DateUTC
12:15 AM,57.9,49.1,72,30.04,10.0,Calm,Calm,-,N/A,,Clear,0,2013-07-24 05:15:00
12:35 AM,57.0,49.3,75,30.05,10.0,ESE,3.5,-,N/A,,Clear,120,2013-07-24 05:35:00
12:55 AM,57.2,49.1,74,30.05,10.0,Calm,Calm,-,N/A,,Clear,0,2013-07-24 05:55:00
1:15 AM,56.3,49.1,77,30.05,10.0,Calm,Calm,-,N/A,,Clear,0,2013-07-24 06:15:00
1:35 AM,54.5,48.9,81,30.05,10.0,Calm,Calm,-,N/A,,Clear,0,2013-07-24 06:35:00
1:55 AM,53.1,48.4,84,30.05,10.0,Calm,Calm,-,N/A,,Clear,0,2013-07-24 06:55:00
2:15 AM,52.7,49.1,88,30.05,10.0,Calm,Calm,-,N/A,,Clear,0,2013-07-24 07:15:00
2:35 AM,51.8,49.5,92,30.06,10.0,Calm,Calm,-,N/A,,Scattered Clouds,0,2013-07-24 07:35:00
2:55 AM,52.0,50.0,93,30.05,10.0,Calm,Calm,-,N/A,,Mostly Cloudy,0,2013-07-24 07:55:00
3:15 AM,54.0,50.4,88,30.06,10.0,Calm,Calm,-,N/A,,Mostly Cloudy,0,2013-07-24 08:15:00
3:35 AM,53.6,51.6,93,30.06,10.0,Calm,Calm,-,N/A,,Scattered Clouds,0,2013-07-24 08:35:00
3:55 AM,52.7,51.1,94,30.06,10.0,Calm,Calm,-,N/A,,Clear,0,2013-07-24 08:55:00
4:15 AM,52.7,50.9,94,30.06,10.0,Calm,Calm,-,N/A,,Clear,0,2013-07-24 09:15:00
4:35 AM,52.7,50.4,92,30.05,10.0,SSE,3.5,-,N/A,,Scattered Clouds,160,2013-07-24 09:35:00
4:55 AM,52.7,50.0,91,30.06,10.0,Calm,Calm,-,N/A,,Scattered Clouds,0,2013-07-24 09:55:00
5:15 AM,53.1,50.5,91,30.06,10.0,Calm,Calm,-,N/A,,Mostly Cloudy,0,2013-07-24 10:15:00
5:35 AM,53.6,51.3,92,30.07,10.0,Calm,Calm,-,N/A,,Overcast,0,2013-07-24 10:35:00
5:55 AM,54.3,51.4,90,30.07,10.0,Calm,Calm,-,N/A,,Scattered Clouds,0,2013-07-24 10:55:00
6:15 AM,54.9,51.3,88,30.07,10.0,Calm,Calm,-,N/A,,Mostly Cloudy,0,2013-07-24 11:15:00
6:35 AM,55.6,51.8,87,30.07,10.0,Calm,Calm,-,N/A,,Overcast,0,2013-07-24 11:35:00
6:55 AM,56.3,52.5,87,30.09,10.0,Calm,Calm,-,N/A,,Overcast,0,2013-07-24 11:55:00
7:15 AM,57.7,51.1,78,30.09,10.0,SSW,4.6,-,N/A,,Overcast,200,2013-07-24 12:15:00
7:35 AM,59.4,48.9,68,30.09,10.0,South,3.5,-,N/A,,Scattered Clouds,170,2013-07-24 12:35:00
7:55 AM,61.0,49.1,65,30.09,10.0,Calm,Calm,-,N/A,,Scattered Clouds,0,2013-07-24 12:55:00
8:15 AM,63.0,48.7,60,30.09,10.0,South,3.5,-,N/A,,Mostly Cloudy,170,2013-07-24 13:15:00
8:35 AM,64.6,49.6,58,30.09,10.0,South,3.5,-,N/A,,Mostly Cloudy,180,2013-07-24 13:35:00
8:55 AM,65.5,49.5,56,30.09,10.0,SSW,5.8,-,N/A,,Mostly Cloudy,210,2013-07-24 13:55:00
9:15 AM,66.9,49.8,54,30.09,10.0,South,8.1,-,N/A,,Scattered Clouds,180,2013-07-24 14:15:00
9:35 AM,68.9,49.8,51,30.09,10.0,SSW,6.9,-,N/A,,Mostly Cloudy,200,2013-07-24 14:35:00
9:55 AM,68.0,47.5,48,30.09,10.0,SW,5.8,-,N/A,,Overcast,230,2013-07-24 14:55:00
10:15 AM,67.1,48.7,52,30.09,10.0,WSW,5.8,-,N/A,,Overcast,240,2013-07-24 15:15:00
10:35 AM,67.3,49.1,52,30.09,10.0,WSW,4.6,-,N/A,,Overcast,250,2013-07-24 15:35:00
10:55 AM,67.5,48.9,51,30.09,10.0,Calm,Calm,-,N/A,,Overcast,0,2013-07-24 15:55:00
11:15 AM,68.2,49.5,51,30.09,10.0,SW,4.6,-,N/A,,Overcast,220,2013-07-24 16:15:00
11:35 AM,68.2,49.6,51,30.09,10.0,West,4.6,-,N/A,,Overcast,280,2013-07-24 16:35:00
11:55 AM,68.4,48.2,48,30.09,10.0,WSW,4.6,-,N/A,,Overcast,250,2013-07-24 16:55:00
12:15 PM,68.4,49.5,51,30.09,10.0,WSW,5.8,-,N/A,,Overcast,240,2013-07-24 17:15:00
12:35 PM,68.2,49.3,51,30.09,10.0,West,3.5,-,N/A,,Overcast,270,2013-07-24 17:35:00
12:55 PM,68.9,48.2,48,30.07,10.0,West,3.5,-,N/A,,Overcast,270,2013-07-24 17:55:00
1:15 PM,69.3,48.7,48,30.07,10.0,WSW,3.5,-,N/A,,Overcast,240,2013-07-24 18:15:00
1:35 PM,69.8,50.2,50,30.07,10.0,WSW,4.6,-,N/A,,Overcast,250,2013-07-24 18:35:00
1:55 PM,70.9,50.9,49,30.07,10.0,Calm,Calm,-,N/A,,Overcast,0,2013-07-24 18:55:00
2:15 PM,70.3,52.2,52,30.06,10.0,SW,6.9,-,N/A,,Mostly Cloudy,230,2013-07-24 19:15:00
2:35 PM,72.3,52.3,49,30.05,10.0,SW,4.6,-,N/A,,Overcast,220,2013-07-24 19:35:00
2:55 PM,72.7,52.5,49,30.05,10.0,WNW,6.9,-,N/A,,Overcast,300,2013-07-24 19:55:00
3:15 PM,72.5,52.9,50,30.05,10.0,Calm,Calm,-,N/A,,Overcast,0,2013-07-24 20:15:00
3:35 PM,72.3,52.7,50,30.05,10.0,SW,4.6,-,N/A,,Overcast,220,2013-07-24 20:35:00
3:55 PM,73.2,52.7,48,30.04,10.0,South,6.9,-,N/A,,Mostly Cloudy,190,2013-07-24 20:55:00
4:15 PM,73.2,52.5,48,30.03,10.0,SW,3.5,-,N/A,,Mostly Cloudy,230,2013-07-24 21:15:00
4:35 PM,73.9,51.6,45,30.02,10.0,SSW,3.5,-,N/A,,Mostly Cloudy,210,2013-07-24 21:35:00
4:55 PM,73.9,52.2,46,30.02,10.0,WNW,3.5,-,N/A,,Scattered Clouds,290,2013-07-24 21:55:00
5:15 PM,73.9,51.8,46,30.02,10.0,SSW,3.5,-,N/A,,Mostly Cloudy,210,2013-07-24 22:15:00
5:35 PM,72.9,52.0,48,30.02,10.0,West,4.6,-,N/A,,Mostly Cloudy,270,2013-07-24 22:35:00
5:55 PM,73.2,51.4,46,30.01,10.0,WSW,6.9,-,N/A,,Scattered Clouds,250,2013-07-24 22:55:00
6:15 PM,72.7,52.2,48,30.01,10.0,WNW,4.6,-,N/A,,Scattered Clouds,290,2013-07-24 23:15:00
6:35 PM,73.4,52.2,47,30.01,10.0,West,4.6,-,N/A,,Scattered Clouds,260,2013-07-24 23:35:00
6:55 PM,73.6,52.0,47,30.01,10.0,WSW,5.8,-,N/A,,Scattered Clouds,240,2013-07-24 23:55:00
7:15 PM,72.5,53.4,51,30.01,10.0,WSW,4.6,-,N/A,,Clear,240,2013-07-25 00:15:00
7:35 PM,71.6,53.2,52,30.00,10.0,SW,3.5,-,N/A,,Clear,230,2013-07-25 00:35:00
7:55 PM,70.7,55.2,58,30.01,10.0,South,4.6,-,N/A,,Clear,180,2013-07-25 00:55:00
8:15 PM,69.3,55.6,62,30.00,10.0,South,4.6,-,N/A,,Clear,170,2013-07-25 01:15:00
8:35 PM,68.0,56.1,66,30.00,10.0,SSE,4.6,-,N/A,,Clear,160,2013-07-25 01:35:00
8:55 PM,66.6,55.9,69,30.00,10.0,South,5.8,-,N/A,,Clear,180,2013-07-25 01:55:00
9:15 PM,66.6,55.8,68,30.00,10.0,South,5.8,-,N/A,,Clear,180,2013-07-25 02:15:00
9:35 PM,65.5,55.8,71,30.00,10.0,SSE,5.8,-,N/A,,Clear,160,2013-07-25 02:35:00
9:55 PM,64.0,56.3,76,30.01,10.0,South,3.5,-,N/A,,Clear,170,2013-07-25 02:55:00
10:15 PM,63.5,56.1,77,30.01,10.0,South,5.8,-,N/A,,Clear,170,2013-07-25 03:15:00
10:35 PM,63.9,55.8,75,30.01,10.0,South,6.9,-,N/A,,Clear,170,2013-07-25 03:35:00
10:55 PM,63.1,55.6,76,30.02,10.0,South,5.8,-,N/A,,Clear,170,2013-07-25 03:55:00
11:15 PM,63.0,55.6,77,30.00,10.0,SSE,5.8,-,N/A,,Clear,160,2013-07-25 04:15:00
11:35 PM,63.5,55.4,75,30.00,10.0,South,5.8,-,N/A,,Clear,170,2013-07-25 04:35:00
11:55 PM,63.5,55.4,75,30.00,10.0,SSE,5.8,-,N/A,,Clear,160,2013-07-25 04:55:00